CZ-4B DEB, 43431

Orbit data source: Space-Track

CZ-4B DEB, 43431 is space debris in LEO originally from a launch on Thu, 15 Jun 2017 UTC launched from the Jiuquan Satellite Launch Center, China (JSC). Debris objects in space refer to the collection of defunct objects orbiting the Earth. Examples of debris include non-operational satellites, rocket bodies, and fragments generated from explosions, collisions, or faulty payload assembly.

Loading next visibility...
Identifier
43431, 2017-034G
Orbit
LEO
Country
Flag of CNCN / PRC
Related business
Manufacturer
SAST
Mission
Spacecraft
Bus & Motor
Unknown
Mass
Unknown
Launch date (UTC)
2017-06-15 (8 years ago)
Launch vehicle
Unknown
Launch site
Jiuquan Satellite Launch Center, China (JSC)
Object type
Payload
Rocket body
Debris
Shape & HBR
Unknown shape, 0.1 m
Radar Cross Section
Small (<0.1 m²)

Expand to show TLE details & history
Last TLE update: 15 hours ago

TLE from 15 hours ago
0 CZ-4B DEB
1 43431U 17034G   25291.13334180  .00022551  00000-0  17519-2 0  9992
2 43431  43.0819 233.8496 0122772 186.0196 173.9173 14.95109581443835
Epoch: 2025-10-18T03:12Z
TLE epoch observation values (Epoch: 2025-10-18T03:12:00.731Z)
Latitude
-0.00006°
Longitude
158.97776°
Altitude
666.79 km
Speed
7.479 km/s
True Right ascension
15h 35m 23s
True Declination
0° 00' 00"
Sunlit
Object was in daylight at epoch
Visualization orbit readout
Latitude
Unknown
Longitude
Unknown
Altitude
Unknown
Speed
Unknown
Apparent Right ascension
Unknown
Apparent Declination
Unknown
Sunlit
N/A
Visualization observer readout
Local Sidereal Time
12:52:25
Azimuth
Unknown
Elevation
Unknown
Doppler factor
Unknown
Orbital elements
Apogee altitude
669.412 km
Perigee altitude
498.462 km
Semi-major axis
6,962.074 km
Eccentricity
0.01228
Inclination
43.0819°
RAAN
233.8496°
Arg. of periapsis
186.0196°
True anomaly
174.06413°
Mean anomaly
173.9173°
Eccentric anomaly
173.99094°
Mean motion
3.73624 °/min
Orbital period
96.35 mins
BSTAR
0.0017519
Loading maneuver chart data...
Computing Atmospheric mass density...
Loading historical data...
Loading historical data...
Loading historical data...
Loading historical data...
Loading historical data...
Loading historical data...
Loading historical data...

Documentation

Showing up to 5 results
|